Change the Weather History Date:

Monday, February 11, 2013

  Actual Average (KMVN) Record (KMVN)
Temperature  
Mean Temperature 43 °F -  
Max Temperature 53 °F 42 °F 60 °F (2009)
Min Temperature 32 °F 27 °F -2 °F (2014)
Degree Days  
Heating Degree Days 22    
Moisture  
Dew Point 30 °F    
Average Humidity 61    
Maximum Humidity 81    
Minimum Humidity 40    
Precipitation  
Precipitation 0.00 in - - ()
Sea Level Pressure  
Sea Level Pressure 30.01 in    
Wind  
Wind Speed 11 mph (WSW)    
Max Wind Speed 18 mph    
Max Gust Speed 31 mph    
Visibility 10 miles    
Events      
Averages and records for this station are not official NWS values.
T = Trace of Precipitation, MM = Missing Value Source: NWS Daily Summary

Daily Weather History Graph

Daily Weather History Graph

Search for Another Location

Airport or City:

Trip Planner

Search our weather history database for the weather conditions in past years. The results will help you decide how hot, cold, wet, or windy it might be!

Date:

Astronomy

Feb. 11, 2013 Rise Set
Actual Time 6:48 AM CST 5:27 PM CST
Civil Twilight 6:21 AM CST 5:55 PM CST
Nautical Twilight 5:50 AM CST 6:26 PM CST
Astronomical Twilight 5:19 AM CST 6:57 PM CST
Moon 7:14 AM CST (2/11) 7:21 PM CST (2/11)
Length of Visible Light 11h 33m
Length of Day
10h 39m
Waxing Crescent, 3% of the Moon is Illuminated
Feb 11
Waxing Crescent
Feb 17
First Quarter
Feb 25
Full
Mar 4
Last Quarter
Mar 11
New

Hourly Weather History & Observations

Time (CST) Temp. Windchill Dew Point Humidity Pressure Visibility Wind Dir Wind Speed Gust Speed Precip Events Conditions
12:15 AM 53.6 °F - 46.4 °F 77% 29.78 in 10.0 mi SW 12.7 mph 20.7 mph N/A   Clear
12:35 AM 51.8 °F - 42.8 °F 71% 29.78 in 10.0 mi SW 12.7 mph 18.4 mph N/A   Clear
12:55 AM 51.8 °F - 41.0 °F 67% 29.79 in 10.0 mi WSW 13.8 mph 20.7 mph N/A   Clear
1:15 AM 51.8 °F - 39.2 °F 62% 29.80 in 10.0 mi WSW 11.5 mph - N/A   Clear
1:35 AM 51.8 °F - 35.6 °F 54% 29.81 in 10.0 mi WSW 16.1 mph 23.0 mph N/A   Clear
1:55 AM 50.0 °F - 35.6 °F 58% 29.82 in 10.0 mi WSW 18.4 mph 25.3 mph N/A   Clear
2:15 AM 48.2 °F - 33.8 °F 58% 29.83 in 10.0 mi WSW 15.0 mph 28.8 mph N/A   Clear
2:35 AM 48.2 °F - 33.8 °F 58% 29.84 in 10.0 mi WSW 10.4 mph 19.6 mph N/A   Clear
2:55 AM 46.4 °F 41.5 °F 33.8 °F 62% 29.86 in 10.0 mi West 10.4 mph 31.1 mph N/A   Clear
3:15 AM 44.6 °F 38.4 °F 30.2 °F 57% 29.87 in 10.0 mi West 12.7 mph 21.9 mph N/A   Clear
3:35 AM 42.8 °F 35.4 °F 30.2 °F 61% 29.88 in 10.0 mi West 15.0 mph 21.9 mph N/A   Clear
3:55 AM 42.8 °F 37.0 °F 30.2 °F 61% 29.89 in 10.0 mi West 10.4 mph 19.6 mph N/A   Clear
4:15 AM 42.8 °F 35.8 °F 30.2 °F 61% 29.90 in 10.0 mi West 13.8 mph 20.7 mph N/A   Clear
4:55 AM 41.0 °F 33.9 °F 30.2 °F 65% 29.91 in 10.0 mi WSW 12.7 mph 19.6 mph N/A   Clear
5:15 AM 39.2 °F 30.5 °F 30.2 °F 70% 29.92 in 10.0 mi WSW 16.1 mph 23.0 mph N/A   Clear
5:35 AM 39.2 °F 32.5 °F 30.2 °F 70% 29.94 in 10.0 mi WSW 10.4 mph 18.4 mph N/A   Clear
5:55 AM 39.2 °F 33.6 °F 30.2 °F 70% 29.97 in 10.0 mi WSW 8.1 mph - N/A   Clear
6:15 AM 39.2 °F 33.0 °F 28.4 °F 65% 29.96 in 10.0 mi WSW 9.2 mph - N/A   Clear
6:35 AM 37.4 °F 30.3 °F 28.4 °F 70% 29.97 in 10.0 mi WSW 10.4 mph - N/A   Clear
6:55 AM 37.4 °F 30.3 °F 28.4 °F 70% 29.98 in 10.0 mi WSW 10.4 mph - N/A   Clear
7:15 AM 37.4 °F 30.8 °F 28.4 °F 70% 29.99 in 10.0 mi SW 9.2 mph - N/A   Clear
7:35 AM 37.4 °F 29.8 °F 28.4 °F 70% 29.99 in 10.0 mi WSW 11.5 mph - N/A   Clear
7:55 AM 39.2 °F 32.0 °F 30.2 °F 70% 30.00 in 10.0 mi WSW 11.5 mph 18.4 mph N/A   Clear
8:15 AM 39.2 °F 32.0 °F 30.2 °F 70% 30.00 in 10.0 mi WSW 11.5 mph 19.6 mph N/A   Clear
8:35 AM 39.2 °F 31.2 °F 30.2 °F 70% 30.01 in 10.0 mi WSW 13.8 mph 20.7 mph N/A   Clear
8:55 AM 41.0 °F 32.2 °F 30.2 °F 65% 30.01 in 10.0 mi WSW 18.4 mph 29.9 mph N/A   Clear
9:15 AM 41.0 °F 32.8 °F 30.2 °F 65% 30.02 in 10.0 mi West 16.1 mph 26.5 mph N/A   Clear
9:35 AM 42.8 °F 34.8 °F 30.2 °F 61% 30.03 in 10.0 mi WSW 17.3 mph 25.3 mph N/A   Clear
9:55 AM 42.8 °F 35.1 °F 30.2 °F 61% 30.04 in 10.0 mi WSW 16.1 mph 24.2 mph N/A   Clear
10:15 AM 42.8 °F 35.1 °F 30.2 °F 61% 30.05 in 10.0 mi West 16.1 mph 25.3 mph N/A   Scattered Clouds
10:35 AM 42.8 °F 35.4 °F 30.2 °F 61% 30.05 in 10.0 mi West 15.0 mph 25.3 mph N/A   Clear
10:55 AM 44.6 °F 37.2 °F 30.2 °F 57% 30.05 in 10.0 mi WSW 17.3 mph 20.7 mph N/A   Clear
11:15 AM 44.6 °F 39.7 °F 30.2 °F 57% 30.05 in 10.0 mi West 9.2 mph 21.9 mph N/A   Clear
11:35 AM 44.6 °F 39.7 °F 30.2 °F 57% 30.05 in 10.0 mi West 9.2 mph 19.6 mph N/A   Clear
11:55 AM 44.6 °F 38.8 °F 30.2 °F 57% 30.04 in 10.0 mi West 11.5 mph 21.9 mph N/A   Clear
12:15 PM 46.4 °F 41.1 °F 30.2 °F 53% 30.04 in 10.0 mi West 11.5 mph 21.9 mph N/A   Clear
12:35 PM 46.4 °F 41.5 °F 30.2 °F 53% 30.03 in 10.0 mi West 10.4 mph 25.3 mph N/A   Clear
12:55 PM 46.4 °F 40.7 °F 30.2 °F 53% 30.04 in 10.0 mi West 12.7 mph 23.0 mph N/A   Clear
1:15 PM 48.2 °F - 30.2 °F 50% 30.04 in 10.0 mi West 11.5 mph 16.1 mph N/A   Clear
1:35 PM 48.2 °F - 30.2 °F 50% 30.05 in 10.0 mi WSW 15.0 mph 24.2 mph N/A   Clear
1:55 PM 48.2 °F - 30.2 °F 50% 30.05 in 10.0 mi West 11.5 mph 20.7 mph N/A   Clear
2:15 PM 48.2 °F - 28.4 °F 46% 30.05 in 10.0 mi West 12.7 mph 25.3 mph N/A   Clear
2:35 PM 48.2 °F - 28.4 °F 46% 30.05 in 10.0 mi West 12.7 mph 24.2 mph N/A   Clear
2:55 PM 50.0 °F - 26.6 °F 40% 30.05 in 10.0 mi West 13.8 mph 20.7 mph N/A   Clear
3:15 PM 50.0 °F - 28.4 °F 43% 30.05 in 10.0 mi West 12.7 mph 20.7 mph N/A   Clear
3:35 PM 48.2 °F - 26.6 °F 43% 30.06 in 10.0 mi West 12.7 mph 19.6 mph N/A   Clear
3:55 PM 48.2 °F - 26.6 °F 43% 30.06 in 10.0 mi West 15.0 mph 21.9 mph N/A   Clear
4:55 PM 48.2 °F - 28.4 °F 46% 30.06 in 10.0 mi West 8.1 mph - N/A   Clear
5:15 PM 46.4 °F 42.9 °F 24.8 °F 43% 30.06 in 10.0 mi West 6.9 mph - N/A   Clear
5:35 PM 44.6 °F 42.2 °F 26.6 °F 49% 30.07 in 10.0 mi West 4.6 mph - N/A   Clear
5:55 PM 44.6 °F 42.2 °F 26.6 °F 49% 30.07 in 10.0 mi West 4.6 mph - N/A   Clear
6:15 PM 42.8 °F - 28.4 °F 57% 30.08 in 10.0 mi Calm Calm - N/A   Clear
6:35 PM 42.8 °F - 28.4 °F 57% 30.09 in 10.0 mi Calm Calm - N/A   Clear
6:55 PM 41.0 °F 38.0 °F 28.4 °F 61% 30.09 in 10.0 mi West 4.6 mph - N/A   Clear
7:15 PM 42.8 °F 41.1 °F 28.4 °F 57% 30.09 in 10.0 mi West 3.5 mph - N/A   Clear
7:35 PM 42.8 °F - 28.4 °F 57% 30.09 in 10.0 mi Calm Calm - N/A   Clear
7:55 PM 41.0 °F - 28.4 °F 61% 30.10 in 10.0 mi Calm Calm - N/A   Clear
8:15 PM 39.2 °F - 28.4 °F 65% 30.10 in 10.0 mi Calm Calm - N/A   Clear
8:35 PM 37.4 °F - 28.4 °F 70% 30.11 in 10.0 mi Calm Calm - N/A   Clear
8:55 PM 39.2 °F 35.9 °F 28.4 °F 65% 30.12 in 10.0 mi NNW 4.6 mph - N/A   Clear
9:15 PM 39.2 °F 35.9 °F 26.6 °F 61% 30.12 in 10.0 mi West 4.6 mph - N/A   Clear
9:35 PM 39.2 °F - 28.4 °F 65% 30.13 in 10.0 mi Calm Calm - N/A   Clear
9:55 PM 37.4 °F - 28.4 °F 70% 30.13 in 10.0 mi Calm Calm - N/A   Clear
10:15 PM 37.4 °F - 28.4 °F 70% 30.13 in 10.0 mi Calm Calm - N/A   Clear
10:35 PM 37.4 °F - 28.4 °F 70% 30.14 in 10.0 mi Calm Calm - N/A   Clear
10:55 PM 37.4 °F - 28.4 °F 70% 30.15 in 10.0 mi Calm Calm - N/A   Clear
11:15 PM 33.8 °F - 28.4 °F 81% 30.15 in 10.0 mi Calm Calm - N/A   Clear
11:35 PM 33.8 °F - 28.4 °F 81% 30.15 in 10.0 mi Calm Calm - N/A   Clear
11:55 PM 32.0 °F - 26.6 °F 80% 30.15 in 10.0 mi Calm Calm - N/A   Clear